Wind_Speed
10 11 11 12 13 14 15 15 13 11 11 13 13 14 14 13 12 12 13 15 15 15 15 14 11 10 9 9 17 15 14 13 15 17 22 20 23 22 19 17 15 14 14 5 7 14 12
13 14 14 14 14 15 16 16 16 16 16 16 16 16 15 14 13 13 13 14 15 16 15 14 13 10 8 7 9 17 18 16 17 16 23 25 23 24 22 21 16 7 13 9 12 8 11
16 16 16 16 16 16 17 17 18 18 20 20 20 19 17 17 17 16 15 14 12 13 13 12 12 12 10 9 8 10 19 21 19 19 20 27 30 32 25 26 23 18 15 19 18 8 15
18 19 19 19 19 20 20 20 18 18 19 19 19 20 20 20 19 18 18 17 15 14 13 14 14 13 14 12 10 9 11 21 22 22 21 25 34 31 28 25 24 18 17 16 10 14 14
15 15 16 17 18 18 18 20 20 20 20 20 20 20 19 18 21 21 21 19 19 19 17 15 14 15 17 14 10 11 10 11 24 25 26 25 32 32 32 27 27 21 20 16 14 13 16
15 15 16 17 17 17 18 18 19 20 21 21 23 23 22 21 22 22 22 23 22 21 21 22 17 16 14 14 11 10 11 11 14 27 29 28 28 32 33 34 30 20 19 18 19 18 19
16 19 20 20 19 19 19 20 20 21 22 22 23 26 26 26 24 24 25 25 24 24 24 24 23 20 17 16 13 14 12 12 12 18 30 29 31 28 30 32 26 18 18 14 18 28 18
22 22 24 24 25 26 26 25 25 27 28 27 26 27 30 31 29 28 27 27 26 27 25 28 28 21 22 20 15 17 14 12 14 12 22 33 34 25 27 33 32 26 25 24 22 25 18
29 30 31 32 33 33 33 33 33 31 30 32 33 32 33 34 31 30 30 30 32 32 30 25 31 28 27 26 19 19 19 17 14 16 16 22 26 29 31 33 34 33 32 24 23 15 22
34 35 37 38 38 38 38 37 37 37 37 36 35 34 33 37 37 37 36 35 38 37 36 29 35 33 28 29 24 24 22 21 19 16 18 17 23 33 35 34 31 32 30 27 22 22 31
36 38 39 41 43 45 46 47 46 44 44 43 42 41 42 42 43 42 41 40 39 37 40 37 35 35 34 34 30 27 26 25 23 18 22 16 20 28 37 35 32 29 31 30 26 26 30
42 42 44 44 46 47 47 47 47 48 49 49 49 49 48 48 47 49 46 45 46 44 46 38 41 40 38 36 33 35 31 29 26 27 25 21 21 24 29 36 37 33 32 33 31 29 38
47 48 49 51 52 54 55 56 54 55 55 55 56 55 56 53 52 50 52 54 54 54 50 46 44 40 39 39 39 40 33 34 33 30 29 22 23 23 27 36 37 40 38 36 38 38 38
52 54 56 58 59 60 61 61 62 62 60 62 61 60 58 56 54 55 53 54 58 55 53 51 47 48 42 42 41 39 44 41 39 36 32 31 31 27 27 30 38 42 41 47 41 39 34
59 61 63 63 64 64 65 66 67 69 69 69 68 66 64 62 61 58 57 61 62 53 53 55 50 52 53 48 44 46 48 46 42 40 39 35 34 29 28 29 37 36 46 41 39 34 35
65 68 69 71 72 73 74 74 74 74 76 76 76 76 76 73 70 61 63 63 61 58 56 57 57 49 50 42 47 39 50 49 47 44 39 36 33 32 32 32 35 39 33 44 46 46 45
71 74 76 79 81 83 84 84 84 85 86 86 85 83 70 74 70 67 66 60 54 55 62 67 66 65 63 42 41 40 43 44 50 46 43 42 39 31 31 43 37 41 44 46 40 50 49
80 84 87 89 90 91 93 93 94 93 91 89 87 85 70 73 66 62 65 58 56 54 66 71 74 69 69 66 47 45 45 43 36 41 47 46 45 45 38 33 34 38 40 46 52 49 51
91 93 94 95 95 95 95 94 94 92 89 85 79 78 54 61 74 62 54 55 60 62 70 76 75 77 72 69 67 59 50 41 42 38 41 40 49 45 45 39 36 44 42 41 52 49 47
97 97 97 98 98 98 93 89 82 76 68 64 61 56 46 47 54 60 55 58 64 70 77 74 74 77 80 77 71 69 59 54 42 42 41 41 44 53 55 51 37 39 43 43 40 50 55
99 101 100 96 91 85 76 69 63 56 50 47 46 46 46 47 45 42 42 51 65 73 72 77 84 84 87 86 79 73 68 61 50 43 53 53 56 50 49 38 33 34 38 39 42 47 50
99 98 96 91 81 68 55 50 47 48 40 40 41 42 40 37 37 41 46 40 45 60 59 71 72 73 86 91 80 84 80 69 57 52 53 57 60 54 44 44 42 34 38 36 40 42 52
89 84 74 64 51 36 30 32 34 32 32 29 30 32 34 29 31 34 34 43 33 51 51 54 69 69 76 87 90 88 87 82 77 62 44 55 59 57 58 45 38 42 43 36 37 35 36
69 58 48 38 30 22 22 25 23 23 23 23 26 28 30 27 30 27 26 28 38 55 46 45 56 61 55 68 84 88 89 86 83 72 57 45 47 59 52 38 45 48 41 38 35 34 31
52 44 38 29 23 17 19 19 16 18 19 22 21 22 25 23 25 23 22 24 22 33 45 46 41 42 56 50 60 79 76 83 77 69 65 45 48 55 48 45 51 45 38 34 35 45 41
45 39 33 26 20 14 16 16 16 18 20 19 21 20 22 21 19 24 20 21 29 28 24 37 36 33 46 54 44 69 76 58 64 67 43 42 43 42 49 43 47 42 33 34 46 44 36
41 38 33 26 20 17 16 16 15 15 15 16 18 18 23 22 16 22 21 19 23 25 19 16 28 32 37 55 41 45 65 66 65 46 56 54 48 51 45 53 42 34 39 45 41 43 42
37 34 30 25 21 18 16 15 15 14 16 15 15 18 21 20 14 19 21 19 20 20 26 18 13 21 32 47 48 50 60 48 61 46 51 60 56 51 42 38 35 42 43 49 46 48 46
34 32 29 25 23 20 17 14 12 12 11 8 10 9 14 11 11 17 17 18 21 25 25 20 20 15 18 35 48 43 63 47 50 51 53 62 61 50 45 44 44 42 52 50 50 45 40
Wind_Direction
332 333 328 323 319 311 306 305 305 302 304 313 319 323 323 324 321 317 315 315 320 318 317 324 327 293 292 285 251 234 235 223 221 222 213 212 200 200 198 200 178 243 314 50 271 280 232
303 303 304 307 310 313 315 313 308 303 298 302 306 309 314 315 319 317 312 309 309 314 319 313 323 332 298 294 280 237 229 219 221 221 213 216 209 208 213 198 180 213 233 226 263 245 250
300 297 296 296 297 300 304 309 311 310 306 305 308 306 306 304 306 311 312 308 308 306 308 313 312 315 330 308 285 257 240 230 219 227 218 214 214 223 224 199 182 184 221 254 237 266 245
302 304 304 304 302 299 297 294 293 296 302 307 313 313 314 310 309 307 305 305 303 302 302 302 299 301 306 305 307 281 262 233 223 224 226 217 216 222 225 205 196 204 225 244 242 257 259
300 302 304 306 303 299 297 297 297 296 294 295 299 301 305 305 306 304 301 299 296 298 298 293 291 297 291 294 295 291 270 243 228 222 225 225 225 220 220 219 209 197 226 228 237 216 239
296 296 296 295 294 296 299 299 296 292 289 290 292 294 296 299 298 298 299 298 293 289 290 288 293 294 291 282 285 288 280 257 233 225 227 228 231 228 225 222 217 209 219 218 237 275 253
292 292 294 296 297 298 299 301 303 298 292 287 284 285 287 290 292 291 291 292 292 288 285 287 287 285 283 281 276 277 268 268 251 235 228 231 231 234 232 232 224 197 218 216 227 229 212
294 294 296 295 295 297 297 298 298 297 293 290 286 284 283 282 282 281 281 281 281 284 286 286 284 281 280 272 272 266 266 262 257 249 233 231 239 234 233 232 227 214 193 218 251 267 225
291 292 293 294 292 291 290 290 290 292 291 284 282 280 280 280 277 275 275 280 278 276 271 274 282 281 277 272 266 262 258 256 258 255 252 246 238 233 232 228 230 223 187 215 229 247 263
288 287 287 287 286 284 284 284 284 285 285 284 281 281 279 277 275 271 270 277 277 275 271 265 265 274 278 273 268 260 257 257 251 253 254 248 234 227 232 229 227 226 207 195 227 215 245
293 292 290 288 286 286 285 282 279 279 281 282 281 280 279 274 274 274 273 273 272 273 272 274 267 266 264 267 264 258 253 247 255 246 244 252 235 235 232 234 229 227 212 202 223 237 245
295 296 295 294 293 292 289 286 284 284 284 279 279 277 278 278 271 269 270 268 266 265 267 269 274 272 269 266 261 259 253 251 243 246 244 231 236 230 237 236 224 224 218 218 230 224 245
296 297 297 296 293 291 289 286 285 283 280 279 278 278 277 276 270 269 267 265 262 262 266 267 269 272 267 258 260 257 253 248 246 248 250 247 241 239 227 232 228 218 217 221 224 222 235
294 294 293 292 291 289 287 283 278 282 281 281 279 277 275 272 267 267 262 260 265 271 265 260 262 263 263 260 252 254 254 248 242 239 240 242 237 231 230 232 230 224 216 219 218 223 231
293 293 292 291 290 289 287 285 280 278 279 277 278 279 278 274 269 266 262 263 270 269 261 261 249 252 259 256 255 249 247 247 248 243 241 244 243 237 231 231 229 236 223 222 224 229 230
295 295 294 293 292 291 289 287 285 282 281 279 279 280 282 282 280 272 267 270 267 258 252 244 247 243 246 245 254 231 248 249 243 243 238 236 236 240 238 226 234 234 233 222 216 222 227
299 299 298 298 298 298 297 296 294 292 291 289 288 287 286 282 280 277 276 275 258 250 245 246 241 238 238 227 226 237 231 243 250 244 242 237 230 219 228 237 234 230 224 220 228 219 223
303 303 302 302 302 302 301 300 299 298 296 293 292 288 284 282 275 269 270 262 251 244 237 238 235 239 238 228 212 222 235 231 224 245 240 238 228 226 218 239 238 236 237 231 214 221 225
307 307 306 306 306 305 303 300 298 295 293 291 287 286 275 273 275 266 255 247 240 235 230 230 238 235 229 229 216 208 210 228 236 221 231 224 231 223 222 216 226 234 232 233 226 222 224
310 311 310 309 307 304 302 299 295 292 286 282 278 274 262 252 257 261 252 241 231 227 226 234 228 230 230 223 218 219 204 200 212 230 224 228 226 231 229 231 221 226 231 234 223 225 224
314 313 312 310 308 303 298 291 285 280 276 271 267 262 259 257 255 242 244 247 232 229 228 224 225 223 220 225 218 216 204 199 200 212 220 217 217 220 228 211 225 223 233 231 232 233 223
317 315 313 311 307 299 287 278 279 277 273 272 268 265 256 258 257 253 249 242 245 237 239 229 223 220 218 218 217 207 202 196 198 202 223 219 222 211 217 219 200 220 224 233 237 238 222
319 318 314 307 304 294 287 284 283 284 283 281 269 263 261 259 257 251 246 237 246 229 229 238 230 222 220 217 216 213 204 197 193 193 215 226 220 212 220 218 215 223 217 224 235 234 232
328 326 320 316 315 305 304 294 280 280 282 276 270 269 268 263 263 255 254 252 241 240 226 231 239 231 226 225 218 218 201 198 193 190 194 222 219 214 215 209 212 224 225 221 218 230 244
336 335 335 330 323 306 306 300 283 273 274 274 273 274 274 266 252 256 249 245 235 243 239 238 234 234 225 218 224 218 204 205 199 190 197 206 220 209 209 212 227 216 215 216 225 227 214
336 339 341 337 327 306 290 293 284 277 272 267 270 268 267 272 255 255 252 248 233 241 249 223 216 230 221 210 198 214 205 202 190 196 195 197 212 206 204 209 219 224 218 223 225 231 217
333 334 334 332 326 318 311 300 295 288 279 273 267 262 259 263 270 252 242 246 238 231 211 213 232 229 220 211 195 203 203 198 189 194 189 192 203 198 203 211 207 214 219 222 227 225 223
335 336 337 334 332 326 318 314 305 293 295 281 273 265 260 263 247 246 240 237 231 213 173 163 150 209 205 218 204 191 201 190 190 190 190 195 196 198 201 209 212 215 228 229 221 222 224
342 341 339 336 335 331 328 326 320 307 295 276 263 293 265 237 237 239 245 240 218 210 205 186 164 183 190 203 191 180 188 194 188 190 189 196 196 195 204 207 212 213 218 227 230 228 238
Height
5897 5896 5895 5893 5892 5891 5890 5889 5888 5886 5885 5884 5883 5882 5880 5879 5877 5876 5875 5873 5872 5871 5870 5870 5869 5869 5870 5871 5872 5875 5876 5877 5877 5879 5882 5883 5885 5888 5891 5894 5897 5901 5897 5903 5909 5907 5906
5895 5894 5893 5892 5891 5890 5888 5887 5886 5885 5883 5882 5881 5880 5879 5877 5876 5875 5873 5872 5871 5870 5869 5868 5868 5867 5868 5869 5869 5870 5872 5874 5875 5876 5879 5881 5885 5887 5889 5892 5895 5904 5908 5907 5910 5908 5907
5893 5892 5890 5889 5888 5886 5885 5884 5883 5882 5880 5879 5878 5877 5876 5875 5874 5873 5872 5870 5869 5868 5867 5866 5866 5866 5867 5866 5866 5867 5869 5871 5873 5874 5876 5879 5882 5881 5885 5888 5892 5898 5905 5905 5905 5906 5906
5890 5888 5887 5886 5884 5882 5881 5880 5879 5878 5877 5875 5874 5873 5872 5871 5871 5870 5870 5868 5867 5866 5865 5864 5863 5863 5863 5864 5864 5864 5865 5867 5870 5872 5874 5876 5876 5880 5881 5887 5888 5893 5900 5903 5904 5903 5904
5886 5885 5883 5882 5880 5878 5877 5875 5874 5873 5873 5871 5870 5870 5869 5868 5866 5866 5866 5865 5865 5863 5862 5861 5860 5860 5860 5860 5861 5862 5862 5863 5865 5868 5870 5872 5873 5877 5880 5881 5885 5888 5896 5900 5904 5903 5901
5882 5880 5879 5877 5875 5874 5872 5870 5869 5868 5867 5866 5865 5864 5864 5864 5863 5862 5861 5860 5860 5860 5859 5857 5858 5858 5857 5856 5857 5858 5859 5859 5861 5863 5866 5869 5871 5874 5875 5877 5880 5887 5894 5899 5903 5903 5902
5877 5875 5873 5872 5870 5869 5867 5865 5864 5863 5862 5861 5860 5858 5858 5858 5857 5857 5856 5856 5856 5855 5854 5853 5853 5854 5853 5853 5854 5854 5855 5856 5857 5858 5861 5864 5865 5868 5873 5877 5882 5885 5895 5897 5900 5894 5900
5872 5870 5868 5866 5864 5862 5861 5859 5857 5855 5854 5854 5853 5852 5850 5850 5851 5850 5849 5848 5848 5848 5851 5848 5848 5849 5848 5848 5850 5849 5850 5852 5853 5855 5856 5858 5859 5869 5872 5875 5879 5881 5887 5897 5901 5895 5896
5865 5863 5861 5859 5857 5855 5853 5851 5850 5848 5847 5845 5844 5844 5843 5840 5842 5842 5841 5842 5840 5839 5840 5844 5841 5843 5844 5844 5844 5845 5846 5846 5848 5850 5851 5853 5860 5862 5864 5869 5873 5878 5881 5890 5896 5894 5894
5857 5854 5851 5849 5848 5846 5843 5841 5840 5839 5837 5837 5836 5835 5835 5833 5833 5832 5832 5834 5832 5831 5829 5836 5833 5835 5838 5838 5840 5839 5840 5842 5842 5845 5846 5849 5852 5855 5857 5861 5869 5873 5881 5884 5889 5893 5889
5847 5844 5841 5838 5836 5834 5832 5830 5828 5827 5826 5825 5824 5822 5824 5823 5822 5822 5823 5823 5822 5823 5820 5823 5823 5827 5829 5831 5833 5835 5834 5834 5837 5839 5840 5845 5846 5849 5851 5855 5863 5869 5877 5880 5885 5888 5888
5835 5831 5828 5825 5822 5819 5817 5815 5814 5812 5811 5811 5810 5809 5809 5808 5810 5808 5809 5811 5812 5814 5807 5814 5813 5817 5820 5822 5823 5824 5827 5828 5831 5831 5832 5836 5840 5842 5847 5850 5855 5865 5869 5875 5879 5881 5878
5822 5817 5813 5810 5806 5803 5801 5798 5796 5795 5795 5794 5793 5793 5792 5792 5790 5794 5795 5796 5798 5795 5800 5802 5802 5804 5807 5810 5813 5814 5818 5819 5821 5823 5826 5832 5833 5837 5840 5842 5846 5853 5860 5865 5869 5869 5872
5807 5803 5798 5794 5790 5787 5784 5782 5779 5777 5776 5775 5774 5773 5772 5774 5772 5774 5775 5778 5778 5786 5789 5792 5792 5791 5793 5796 5802 5803 5806 5809 5812 5814 5818 5821 5824 5828 5832 5836 5840 5843 5850 5852 5858 5864 5871
5791 5786 5781 5776 5771 5768 5764 5761 5759 5757 5754 5754 5752 5752 5752 5752 5752 5752 5755 5757 5764 5769 5774 5773 5779 5780 5781 5783 5787 5791 5792 5798 5803 5807 5809 5812 5817 5823 5824 5829 5833 5837 5837 5849 5856 5862 5865
5773 5766 5760 5754 5748 5743 5738 5735 5733 5730 5727 5726 5726 5726 5723 5725 5725 5726 5729 5739 5741 5748 5750 5752 5756 5764 5767 5773 5772 5777 5780 5787 5791 5795 5801 5805 5808 5812 5817 5820 5824 5826 5837 5838 5840 5847 5850
5750 5743 5735 5727 5719 5712 5706 5701 5699 5697 5694 5692 5695 5695 5692 5694 5694 5694 5700 5712 5714 5721 5726 5728 5732 5738 5744 5756 5764 5766 5770 5776 5777 5784 5789 5796 5797 5805 5809 5804 5815 5817 5819 5824 5836 5839 5842
5726 5717 5707 5697 5689 5682 5675 5669 5665 5662 5660 5656 5659 5659 5656 5658 5663 5664 5671 5681 5686 5694 5699 5702 5705 5715 5725 5731 5738 5752 5759 5765 5772 5770 5773 5780 5787 5789 5796 5801 5805 5808 5812 5817 5817 5826 5832
5699 5687 5677 5668 5659 5651 5643 5638 5634 5630 5626 5625 5622 5626 5629 5620 5628 5635 5642 5649 5656 5663 5668 5676 5680 5689 5697 5706 5714 5723 5735 5756 5759 5762 5761 5769 5770 5779 5784 5791 5794 5793 5801 5806 5811 5820 5822
5670 5660 5648 5637 5627 5618 5609 5602 5597 5595 5594 5594 5595 5599 5603 5601 5602 5602 5609 5617 5622 5631 5635 5645 5653 5659 5670 5678 5690 5703 5714 5727 5744 5750 5753 5758 5761 5761 5767 5776 5789 5790 5792 5796 5802 5805 5811
5644 5630 5616 5603 5591 5586 5577 5571 5568 5569 5570 5572 5573 5578 5578 5579 5584 5584 5585 5588 5596 5605 5607 5606 5615 5630 5637 5649 5667 5679 5695 5708 5718 5734 5735 5741 5742 5750 5758 5769 5778 5782 5787 5789 5788 5794 5802
5612 5597 5585 5573 5563 5556 5552 5548 5547 5549 5554 5557 5559 5559 5563 5565 5566 5570 5571 5575 5574 5583 5581 5589 5589 5606 5609 5622 5624 5648 5662 5682 5698 5714 5718 5725 5728 5738 5747 5756 5762 5771 5778 5781 5780 5783 5788
5588 5576 5563 5550 5542 5539 5538 5539 5540 5539 5542 5545 5546 5547 5547 5553 5552 5554 5559 5559 5557 5561 5568 5571 5573 5585 5591 5593 5606 5624 5637 5652 5668 5685 5700 5707 5717 5726 5731 5743 5754 5757 5759 5771 5777 5778 5781
5574 5559 5547 5539 5534 5532 5532 5533 5533 5533 5533 5535 5535 5536 5536 5542 5540 5542 5545 5544 5547 5549 5557 5559 5562 5574 5588 5591 5597 5614 5625 5637 5647 5663 5680 5691 5701 5714 5722 5734 5736 5740 5757 5762 5768 5773 5775
5567 5555 5545 5537 5531 5529 5528 5528 5527 5528 5528 5528 5528 5528 5527 5530 5531 5533 5534 5535 5538 5539 5543 5548 5555 5564 5572 5587 5596 5604 5615 5627 5642 5656 5668 5680 5689 5702 5710 5718 5729 5736 5745 5752 5757 5759 5764
5564 5554 5544 5536 5530 5527 5525 5524 5523 5522 5523 5522 5522 5521 5521 5522 5526 5524 5526 5529 5530 5532 5536 5541 5547 5556 5565 5569 5580 5592 5599 5614 5635 5651 5661 5673 5682 5691 5701 5707 5713 5727 5738 5742 5744 5748 5755
5561 5552 5544 5537 5531 5526 5523 5521 5519 5518 5517 5516 5516 5515 5514 5515 5518 5517 5520 5523 5523 5527 5531 5538 5543 5551 5555 5561 5572 5582 5595 5607 5620 5633 5645 5656 5667 5675 5688 5697 5708 5720 5723 5728 5734 5742 5740
5556 5548 5541 5534 5529 5524 5520 5518 5515 5514 5512 5512 5511 5509 5509 5511 5513 5512 5514 5516 5519 5524 5528 5533 5540 5543 5551 5555 5568 5576 5592 5604 5615 5622 5638 5649 5658 5669 5684 5693 5702 5708 5709 5716 5722 5724 5730
5554 5546 5539 5533 5527 5522 5518 5515 5512 5510 5509 5508 5507 5506 5504 5506 5510 5507 5509 5512 5516 5519 5522 5528 5533 5538 5545 5555 5565 5571 5587 5596 5604 5615 5626 5640 5653 5665 5678 5686 5685 5694 5694 5701 5712 5715 5724